Location: Boiro
(42.6475°N, 8.8834°W)
Time: 13:11:23
(UTC+01:00)

Transit 4A - Pass Details

Date: 30 November 2021
Orbit: 863 x 981 km, 66.8° (Epoch: 26 January)

Event Time Altitude Azimuth Distance (km) Brightness Sun altitude
Exits shadow 07:08:59 20° 319° (NW) 2,071 9.3 -17.2°
Maximum altitude 07:13:24 61° 245° (WSW) 1,088 8.0 -16.4°
Drops below altitude 10° 07:19:40 10° 166° (SSE) 2,719 10.7 -15.3°
Sets 07:22:16 0° 163° (SSE) 3,667 11.5 -14.8°
